[[{"header":{"parameterUnit":"m.s-1","parameterCategory":1,"la1":30.2991,"la2":30.254,"lo1":-89.0895,"lo2":-89.0444,"dy":0.0017,"dx":0.0017,"nx":28,"ny":28,"refTime":"2023-08-30T21:00:00:Z","depth":0,"parameterNumber":2,"parameterNumberName":"U-component_of_WINDS"},"data":[0,0,0,0,0,0,0,0,0,0,0,0,0,0,0,0,0,0,0,0,0,0,0,0,0,0,0,0,0,0,0,0,0,0,0,0,0,0,0,0,0,0,0,0,0,0,0,0,0,0,0,0,0,0,0,0,0,0,-1.0027,-1.0027,0,-1.0003,-1.0003,-1.0003,-0.9923,-0.9922,-0.992,-0.9918,-0.9897,-0.9898,-0.9899,0,0,0,0,0,0,0,0,0,0,0,0,0,-1.0007,-1.0008,-1.0027,-1.0027,-1.0027,-1.0003,-1.0003,-1.0002,-0.9924,-0.9922,-0.9919,-0.9917,-0.9896,-0.9898,-0.9899,0,0,0,0,0,0,0,0,0,0,0,0,0,-1.0003,-1.0008,-1.0027,-0.9984,-0.998,-1.0003,-1.0003,-1.0002,-0.9924,-0.9922,-0.9919,-0.9916,-0.9896,-0.9897,-0.9899,-0.9963,0,0,-0.9904,-0.9905,0,0,0,0,0,0,0,0,-1.0003,-1.0004,-0.9991,-0.9987,-0.9983,-0.9963,-0.9988,-0.9989,-0.9925,-0.9946,-0.9918,-0.9915,-0.9921,-0.9921,-0.9922,-0.9961,-0.9961,-0.9904,-0.9905,-0.9906,-0.9906,0,0,0,0,0,0,0,-1.0003,-1.0004,-1.0018,-0.9991,-0.9986,-0.9967,-0.9963,-0.9988,-0.9949,-0.9944,-0.9938,-0.9936,-0.9919,-0.9921,-0.9921,-0.996,-0.9904,-0.9906,-0.9907,-0.9907,-1.0049,-1.0052,0,0,0,0,0,0,-1.001,-1.0005,-1.0018,-1.0017,-0.9986,-0.997,-0.9966,-0.9972,-0.9948,-0.9942,-0.9938,-0.9932,-0.9919,-0.9919,-0.992,-0.9992,-0.9906,-0.9907,-0.9908,-1.0047,-1.005,-1.0053,0,0,0,0,0,0,-1.0009,-1.0011,-1.0019,-1.0009,-1.0009,-0.9973,-0.9981,-0.9973,-0.9975,-0.9944,-0.9937,-0.9947,-0.9917,-0.9918,-0.9952,-0.9991,-0.9908,-0.991,-1.0043,-1.0048,-1.0052,-1.0138,0,0,0,0,0,0,-1.0009,-1.0012,-1.0035,-1.001,-1.001,-1.0052,-0.9983,-0.9975,-0.9978,-0.997,-0.9951,-0.9945,-0.9915,-0.995,-0.9954,-0.9991,-0.9911,-1.004,-1.0045,-1.005,-1.0132,-1.0145,-1.0156,0,0,0,0,0,-1.0009,-1.0062,-1.0037,-1.0039,-1.0038,-1.0054,-1.0054,-1.0017,-0.9981,-1.0005,-0.9985,-0.9946,-0.9985,-0.9954,-0.9958,-0.9996,-1.0037,-1.0044,-1.005,-1.0126,-1.0142,-1.0156,0,0,0,0,0,0,-1.0094,-1.0058,-1.003,-1.0076,-1.0069,-1.0041,-1.007,-1.0035,-1.0039,-1.0032,-0.9987,-0.9983,-1.0024,-1.0013,-0.9979,-1.0056,-1.0005,-1.0012,-1.0062,-1.0077,-1.0088,-1.0091,-0.9912,0,0,0,0,0,-1.0117,-1.0133,-1.0101,-1.0145,-1.0142,-1.0107,-1.0112,-1.0084,-1.0075,-1.0072,-1.0054,-1.0048,-1.0058,-1.0067,-1.0075,-1.0129,-1.0124,-1.0157,-1.0169,-1.0179,-1.0187,-1.0214,-1.0229,-1.0074,-1.0074,-1.0074,0,0,-1.0168,-1.015,-1.0162,-1.0161,-1.0152,-1.017,-1.0105,-1.0126,-1.0139,-1.0076,-1.0107,-1.0093,-1.0083,-1.0128,-1.0146,-1.012,-1.0228,-1.0187,-1.0196,-1.0198,-1.0222,-1.0237,-1.025,-1.0078,-1.0077,-1.0077,0,0,-1.0268,-1.0256,-1.0291,-1.0282,-1.0269,-1.0244,-1.0253,-1.023,-1.0218,-1.0248,-1.0201,-1.0215,-1.0235,-1.0229,-1.0229,-1.0325,-1.0289,-1.0329,-1.0393,-1.042,-1.0432,-1.0443,-1.0478,-1.0491,-1.0336,-1.0336,-1.0336,0,-1.0333,-1.0356,-1.0313,-1.0337,-1.0338,-1.028,-1.0315,-1.031,-1.03,-1.0302,-1.0272,-1.0295,-1.0284,-1.0326,-1.0349,-1.0351,-1.0359,-1.0332,-1.0434,-1.0444,-1.0453,-1.0486,-1.0499,-1.0341,-1.034,-1.034,-1.0339,0,-1.0436,-1.0453,-1.0483,-1.0473,-1.0477,-1.0507,-1.047,-1.0479,-1.045,-1.0429,-1.046,-1.0444,-1.0448,-1.0456,-1.0429,-1.0494,-1.0478,-1.0442,-1.039,-1.0474,-1.0504,-1.0516,-1.0348,-1.0346,-1.0345,-1.0344,0,0,-1.0592,-1.0556,-1.0568,-1.0563,-1.0543,-1.0555,-1.0582,-1.0584,-1.0593,-1.0588,-1.061,-1.0626,-1.0592,-1.0592,-1.0563,-1.0587,-1.0664,-1.0547,-1.0546,-1.057,-1.0735,-1.0764,-1.0779,-1.064,-1.0642,-1.0643,-1.0736,0,-1.0687,-1.073,-1.0692,-1.0743,-1.0758,-1.0702,-1.0725,-1.0715,-1.0696,-1.0706,-1.0685,-1.0697,-1.0651,-1.065,-1.0671,-1.065,-1.0697,-1.0643,-1.066,-1.0661,-1.0666,-1.0794,-1.0825,-1.0913,-1.0748,-1.075,-1.0751,0,-1.0805,-1.0804,-1.0856,-1.0831,-1.0836,-1.0857,-1.0856,-1.0866,-1.0854,-1.0838,-1.0836,-1.08,-1.0825,-1.0773,-1.0807,-1.0771,-1.0775,-1.0766,-1.0768,-1.077,-1.0713,-1.08,-1.0941,-1.0955,-1.0769,-1.0768,-1.0766,0,-1.0914,-1.0925,-1.0957,-1.0955,-1.0926,-1.0943,-1.0932,-1.0916,-1.092,-1.0918,-1.092,-1.0922,-1.0924,-1.0926,-1.0892,-1.0857,-1.093,-1.0875,-1.0918,-1.0919,-1.0938,-1.0937,-1.1082,-1.0939,-1.0939,-1.0938,-1.0938,0,-1.1026,-1.106,-1.1006,-1.1026,-1.1063,-1.1018,-1.1055,-1.1039,-1.1025,-1.1041,-1.0993,-1.1009,-1.0962,-1.0973,-1.0946,-1.0978,-1.0979,-1.0968,-1.096,-1.0973,-1.0974,-1.0976,-1.097,-1.0942,-1.0941,-1.094,-1.094,0,-1.1155,-1.112,-1.1151,-1.1121,-1.1114,-1.1143,-1.1117,-1.1134,-1.111,-1.1132,-1.1134,-1.1097,-1.1108,-1.1073,-1.1079,-1.106,-1.1108,-1.109,-1.1112,-1.1107,-1.1152,-1.1149,-1.1304,-1.1322,-1.1167,-1.1168,-1.117,0,-1.1229,-1.1254,-1.1226,-1.1232,-1.1224,-1.1235,-1.1238,-1.1194,-1.1199,-1.1186,-1.1205,-1.1211,-1.1214,-1.1234,-1.1208,-1.1212,-1.1194,-1.1248,-1.1195,-1.1206,-1.1196,-1.1195,-1.1198,-1.126,-1.1262,-1.1264,-1.1265,0,-1.1365,-1.1346,-1.1351,-1.135,-1.1354,-1.1351,-1.1346,-1.1354,-1.1307,-1.1315,-1.1324,-1.1326,-1.1331,-1.1338,-1.1336,-1.1325,-1.1288,-1.1281,-1.1292,-1.1306,-1.1318,-1.1312,-1.1143,-1.1279,-1.1277,-1.1276,-1.1276,-1.1275,-1.147,-1.1489,-1.1471,-1.1478,-1.1469,-1.1464,-1.1479,-1.1456,-1.1463,-1.1462,-1.1436,-1.1451,-1.1436,-1.1429,-1.1422,-1.1433,-1.1408,-1.1423,-1.1427,-1.1432,-1.144,-1.1315,-1.1433,-1.1432,-1.1432,-1.1431,-1.1431,0,-1.1604,-1.1589,-1.1596,-1.1588,-1.1594,-1.1555,-1.1546,-1.1554,-1.1567,-1.1557,-1.156,-1.157,-1.1576,-1.155,-1.1553,-1.1567,-1.155,-1.1569,-1.1568,-1.1566,-1.1462,-1.1453,-1.1583,-1.1583,-1.1583,-1.1583,-1.1583,-1.1583,-1.1674,-1.1704,-1.1683,-1.1707,-1.1692,-1.1706,-1.1704,-1.1699,-1.169,-1.1704,-1.1708,-1.169,-1.1673,-1.1674,-1.1678,-1.167,-1.1673,-1.1699,-1.1685,-1.1589,-1.1574,-1.156,-1.1551,-1.17,-1.17,-1.1789,-1.179,-1.179]},{"header":{"parameterUnit":"m.s-1","parameterCategory":1,"la1":30.2991,"la2":30.254,"lo1":-89.0895,"lo2":-89.0444,"dy":0.0017,"dx":0.0017,"nx":28,"ny":28,"refTime":"2023-08-30T21:00:00:Z","depth":0,"parameterNumber":3,"parameterNumberName":"V-component_of_WINDS"},"data":[0,0,0,0,0,0,0,0,0,0,0,0,0,0,0,0,0,0,0,0,0,0,0,0,0,0,0,0,0,0,0,0,0,0,0,0,0,0,0,0,0,0,0,0,0,0,0,0,0,0,0,0,0,0,0,0,0,0,-3.7841,-3.7841,0,-3.7888,-3.7888,-3.7889,-3.7823,-3.782,-3.7818,-3.7816,-3.7863,-3.7866,-3.7869,0,0,0,0,0,0,0,0,0,0,0,0,0,-3.7692,-3.7695,-3.7841,-3.7841,-3.7842,-3.7888,-3.7888,-3.7889,-3.7823,-3.782,-3.7817,-3.7815,-3.7861,-3.7866,-3.787,0,0,0,0,0,0,0,0,0,0,0,0,0,-3.7749,-3.7696,-3.784,-3.7814,-3.7813,-3.7888,-3.7888,-3.7889,-3.7824,-3.782,-3.7817,-3.7813,-3.786,-3.7865,-3.787,-3.7972,0,0,-3.7886,-3.7888,0,0,0,0,0,0,0,0,-3.7746,-3.7755,-3.7818,-3.7816,-3.7814,-3.7846,-3.7853,-3.7917,-3.7825,-3.7819,-3.7816,-3.7812,-3.786,-3.7865,-3.7881,-3.7975,-3.7977,-3.7886,-3.789,-3.7892,-3.7893,0,0,0,0,0,0,0,-3.7742,-3.7752,-3.7859,-3.7819,-3.7817,-3.78,-3.7804,-3.7865,-3.7859,-3.782,-3.7815,-3.7822,-3.7858,-3.7876,-3.7882,-3.7977,-3.7886,-3.7891,-3.7894,-3.7896,-3.8156,-3.8159,0,0,0,0,0,0,-3.7742,-3.775,-3.7858,-3.7861,-3.7771,-3.7805,-3.781,-3.7839,-3.7858,-3.7857,-3.7825,-3.7818,-3.7869,-3.7876,-3.7883,-3.8003,-3.7892,-3.7896,-3.7899,-3.8152,-3.8156,-3.8161,0,0,0,0,0,0,-3.7739,-3.7752,-3.7856,-3.7804,-3.7816,-3.7812,-3.7845,-3.7842,-3.786,-3.7862,-3.786,-3.7844,-3.7867,-3.7876,-3.7951,-3.8004,-3.7899,-3.7903,-3.8147,-3.8153,-3.8159,-3.8244,0,0,0,0,0,0,-3.7735,-3.7751,-3.779,-3.7805,-3.7819,-3.7923,-3.7848,-3.7845,-3.7869,-3.7862,-3.788,-3.7879,-3.7865,-3.7943,-3.7956,-3.8009,-3.7908,-3.8143,-3.815,-3.8157,-3.8237,-3.8252,-3.8266,0,0,0,0,0,-3.773,-3.7813,-3.7793,-3.7806,-3.7868,-3.7926,-3.7934,-3.7916,-3.7874,-3.7913,-3.7914,-3.7879,-3.7996,-3.7951,-3.7965,-3.8021,-3.8139,-3.8148,-3.8156,-3.823,-3.8249,-3.8265,0,0,0,0,0,0,-3.7803,-3.7814,-3.7792,-3.7882,-3.7904,-3.7915,-3.7963,-3.7937,-3.797,-3.7962,-3.7937,-3.7942,-3.8022,-3.8029,-3.7978,-3.812,-3.8061,-3.8072,-3.8112,-3.813,-3.8145,-3.8141,-3.7912,0,0,0,0,0,-3.783,-3.7878,-3.7884,-3.7963,-3.7975,-3.7968,-3.7993,-3.7977,-3.7998,-3.8007,-3.8013,-3.8034,-3.8076,-3.8104,-3.8142,-3.8238,-3.824,-3.8283,-3.8297,-3.8309,-3.8319,-3.8369,-3.8388,-3.8189,-3.8189,-3.8189,0,0,-3.7886,-3.7898,-3.7929,-3.7978,-3.7993,-3.8042,-3.7976,-3.803,-3.8066,-3.8015,-3.8085,-3.8091,-3.8113,-3.8199,-3.8236,-3.8207,-3.8375,-3.832,-3.8329,-3.8333,-3.838,-3.8399,-3.8416,-3.8195,-3.8194,-3.8193,0,0,-3.8012,-3.8027,-3.8093,-3.811,-3.8133,-3.8128,-3.8144,-3.816,-3.8161,-3.8232,-3.8194,-3.8236,-3.8309,-3.8326,-3.8344,-3.8477,-3.8446,-3.8491,-3.8566,-3.8615,-3.863,-3.8644,-3.8691,-3.8708,-3.8501,-3.8501,-3.8501,0,-3.8078,-3.8151,-3.8131,-3.8188,-3.8211,-3.8167,-3.8234,-3.8251,-3.8286,-3.8302,-3.8269,-3.8358,-3.837,-3.8459,-3.8491,-3.8508,-3.8525,-3.8488,-3.863,-3.8644,-3.8656,-3.87,-3.8718,-3.8506,-3.8506,-3.8505,-3.8505,0,-3.823,-3.8281,-3.8332,-3.8368,-3.8396,-3.8458,-3.8447,-3.8478,-3.846,-3.8458,-3.853,-3.8543,-3.8583,-3.8603,-3.8586,-3.8689,-3.867,-3.8634,-3.8573,-3.8681,-3.8721,-3.8738,-3.8514,-3.8512,-3.851,-3.8509,0,0,-3.8403,-3.8427,-3.8446,-3.8461,-3.8485,-3.8523,-3.8583,-3.8622,-3.8649,-3.8675,-3.8723,-3.8786,-3.8753,-3.8773,-3.8758,-3.8801,-3.8905,-3.876,-3.876,-3.8785,-3.9018,-3.9044,-3.9064,-3.8885,-3.8888,-3.889,-3.9015,0,-3.8529,-3.8632,-3.8616,-3.8716,-3.8762,-3.8722,-3.8774,-3.8794,-3.8794,-3.8832,-3.8832,-3.8876,-3.8829,-3.8841,-3.8883,-3.8883,-3.8951,-3.8874,-3.8928,-3.8931,-3.8923,-3.9085,-3.9113,-3.923,-3.9031,-3.9034,-3.9036,0,-3.8688,-3.872,-3.8825,-3.884,-3.8859,-3.8906,-3.8941,-3.8979,-3.9,-3.8996,-3.902,-3.8997,-3.9055,-3.8995,-3.9075,-3.9024,-3.9045,-3.9049,-3.9053,-3.9056,-3.8989,-3.9091,-3.9267,-3.9284,-3.9061,-3.9059,-3.9057,0,-3.8803,-3.8872,-3.8943,-3.8957,-3.8978,-3.9011,-3.9021,-3.9039,-3.9064,-3.9094,-3.9109,-3.9146,-3.9166,-3.9195,-3.9182,-3.9139,-3.9264,-3.9203,-3.9262,-3.9262,-3.9289,-3.9287,-3.9469,-3.9305,-3.9305,-3.9305,-3.9304,0,-3.8943,-3.9008,-3.8994,-3.9038,-3.911,-3.9091,-3.9162,-3.9167,-3.9183,-3.9227,-3.9194,-3.9236,-3.9217,-3.9256,-3.9247,-3.9314,-3.9323,-3.9322,-3.9318,-3.9324,-3.9324,-3.9336,-3.9327,-3.9309,-3.9308,-3.9307,-3.9307,0,-3.9082,-3.9076,-3.9151,-3.9164,-3.9169,-3.9221,-3.9232,-3.9272,-3.927,-3.9325,-3.9337,-3.9333,-3.9378,-3.9369,-3.9418,-3.9411,-3.9495,-3.9482,-3.9488,-3.9485,-3.9544,-3.9538,-3.9739,-3.9764,-3.9585,-3.9587,-3.9589,0,-3.9172,-3.9221,-3.924,-3.9267,-3.9279,-3.9323,-3.9348,-3.9332,-3.9359,-3.9387,-3.9424,-3.9466,-3.9499,-3.9573,-3.9574,-3.9612,-3.9598,-3.9666,-3.9603,-3.9607,-3.9597,-3.9594,-3.9598,-3.9678,-3.968,-3.9682,-3.9683,0,-3.9331,-3.9325,-3.9363,-3.94,-3.9431,-3.9459,-3.9484,-3.9508,-3.9493,-3.9525,-3.9571,-3.9597,-3.9648,-3.969,-3.9724,-3.9733,-3.9706,-3.9703,-3.9719,-3.9724,-3.9725,-3.9724,-3.9521,-3.9698,-3.9697,-3.9696,-3.9695,-3.9694,-3.9446,-3.9488,-3.9508,-3.9551,-3.9568,-3.9592,-3.9631,-3.9633,-3.9672,-3.9712,-3.97,-3.9752,-3.9771,-3.9815,-3.9828,-3.9868,-3.9843,-3.9865,-3.9871,-3.9876,-3.9883,-3.972,-3.9875,-3.9874,-3.9874,-3.9874,-3.9873,0,-3.9602,-3.9613,-3.9653,-3.9689,-3.9723,-3.9695,-3.9721,-3.9751,-3.9798,-3.9818,-3.9851,-3.9904,-3.9945,-3.9949,-3.9988,-4.0019,-4.0007,-4.0029,-4.0026,-4.0028,-3.9904,-3.9886,-4.0038,-4.0038,-4.0038,-4.0038,-4.0038,-4.0038,-3.9687,-3.9756,-3.9753,-3.983,-3.984,-3.9891,-3.9908,-3.993,-3.9946,-4.0006,-4.004,-4.0043,-4.0057,-4.0096,-4.0132,-4.0132,-4.0147,-4.0174,-4.017,-4.0053,-4.0037,-4.0021,-4.0004,-4.0178,-4.0178,-4.029,-4.0291,-4.0291]}]]